Showing default

GARAI-B, 68463

Orbit data source: Space-Track

GARAI-B, 68463 is a payload satellite owned by Satlantis (SE) in SSO that was launched on Mon, 30 Mar 2026 UTC via an FALCON 9 launch vehicle from the Air Force Western Test Range (AFWTR). Payload-class satellites include a variety of spacecraft equipped with specific instruments for various scientific and technological missions. These include communications satellites like Starlink; space stations such as the ISS; scientific satellites like the Hubble; Earth observation satellites from companies like Planet Labs, Umbra, and HawkEye 360; GPS; miniature CubeSats for education and research; and military/defense satellites.

Loading next visibility...
Identifier
68463, 2026-067AZ
Orbit
SSO
Country
Flag of SESE / SWED
Related business
Manufacturer
OHB-SE
Mission
Operational spacecraft
Bus & Motor
INNOSAT, Unknown motor
Mass
115 kg wet, 115 kg dry
Launch date (UTC)
2026-03-30 (3 months ago)
Launch vehicle
FALCON 9
Launch site
Air Force Western Test Range (AFWTR)
Object type
Payload
Rocket body
Debris
Shape & HBR
Unknown shape, 3.3 m
Radar Cross Section
Large (>1 m²)

Expand to show TLE details & history
Last TLE update: 2 days ago

TLE from 2 days ago
0 GARAI-B
1 68463U 26067AZ  26171.40090572  .00005144  00000-0  25723-3 0  9998
2 68463  97.4535 129.7416 0005529  71.7614 288.4221 15.17862470 12426
Epoch: 2026-06-20T09:37Z
TLE epoch observation values (Epoch: 2026-06-20T09:37:18.254Z)
Latitude
-0.00003°
Longitude
76.79948°
Altitude
514.186 km
Speed
7.607 km/s
True Right ascension
08h 38m 57s
True Declination
0° 00' 00"
Sunlit
Object was in daylight at epoch
Visualization orbit readout
Latitude
Unknown
Longitude
Unknown
Altitude
Unknown
Speed
Unknown
Apparent Right ascension
Unknown
Apparent Declination
Unknown
Sunlit
N/A
Visualization observer readout
Local Sidereal Time
12:35:30
Azimuth
Unknown
Elevation
Unknown
Doppler factor
Unknown
Orbital elements
Apogee altitude
513.081 km
Perigee altitude
505.465 km
Semi-major axis
6,887.41 km
Eccentricity
0.00055
Inclination
97.4535°
RAAN
129.7416°
Arg. of periapsis
71.7614°
True anomaly
288.36198°
Mean anomaly
288.4221°
Eccentric anomaly
288.39204°
Mean motion
3.79716 °/min
Orbital period
94.81 mins
BSTAR
0.00025723
Loading maneuver chart data...
Computing Atmospheric mass density...
Loading historical data...
Loading historical data...
Loading historical data...
Loading historical data...
Loading historical data...
Loading historical data...
Loading historical data...

Documentation

Showing up to 5 results
|